This is the latest recevied weather packets stored in our database for station/object KA1AL. If no packets are shown the sender has not sent any weather packets the latest 10 day(s).
| Time | Temp. | Humidity | Pressure | Rain* | Wind** | Luminosity | Snow |
|---|---|---|---|---|---|---|---|
| 1777941765 | 10° C | 84% | 1006.2 hPa | 0 mm | - | 0 W/m² | - |
| 1777941462 | 10.56° C | 82% | 1006 hPa | 0 mm | - | 0 W/m² | - |
| 1777941160 | 10.56° C | 80% | 1006 hPa | 0 mm | - | 0 W/m² | - |
| 1777940856 | 10.56° C | 81% | 1005.8 hPa | 0 mm | - | 0 W/m² | - |
| 1777940554 | 10° C | 82% | 1005.6 hPa | 0 mm | - | 0 W/m² | - |
| 1777940251 | 10° C | 83% | 1005.5 hPa | 0 mm | - | 0 W/m² | - |
| 1777939949 | 10.56° C | 80% | 1005.7 hPa | 0 mm | - | 0 W/m² | - |
| 1777939645 | 9.44° C | 84% | 1005.5 hPa | 0 mm | - | 0 W/m² | - |
| 1777939343 | 10.56° C | 81% | 1005.5 hPa | 0 mm | - | 0 W/m² | - |
| 1777939039 | 10.56° C | 80% | 1005.6 hPa | 0 mm | - | 0 W/m² | - |
| 1777938735 | 11.11° C | 79% | 1005.5 hPa | 0 mm | - | 0 W/m² | - |
| 1777938433 | 11.11° C | 79% | 1005.6 hPa | 0 mm | - | 1 W/m² | - |
| 1777938130 | 11.11° C | 79% | 1005.3 hPa | 0 mm | - | 4 W/m² | - |
| 1777937826 | 11.11° C | 80% | 1005.1 hPa | 0 mm | - | 5 W/m² | - |
| 1777937522 | 11.67° C | 78% | 1005.2 hPa | 0 mm | - | 7 W/m² | - |
| 1777937220 | 12.22° C | 76% | 1005.1 hPa | 0 mm | - | 9 W/m² | - |
| 1777936916 | 12.22° C | 75% | 1005.3 hPa | 0 mm | - | 9 W/m² | - |
| 1777936613 | 12.22° C | 75% | 1005.2 hPa | 0 mm | - | 11 W/m² | - |
| 1777936310 | 12.22° C | 75% | 1005 hPa | 0 mm | - | 14 W/m² | - |
| 1777936006 | 12.22° C | 73% | 1004.9 hPa | 0 mm | - | 14 W/m² | - |
| 1777935705 | 12.22° C | 73% | 1005 hPa | 0 mm | - | 20 W/m² | - |
| 1777935403 | 12.78° C | 73% | 1005.1 hPa | 0 mm | - | 35 W/m² | - |
| 1777935098 | 12.78° C | 72% | 1004.9 hPa | 0 mm | - | 35 W/m² | - |
| 1777934795 | 12.78° C | 72% | 1004.6 hPa | 0 mm | - | 43 W/m² | - |
| 1777934492 | 12.78° C | 72% | 1004.8 hPa | 0 mm | - | 41 W/m² | - |
* Rain latest hour (hover to see other rain measurements)
** Current wind speed in m/s (hover to see current wind gust speed)